Home   Weather   India   Dharapuram   Past weeks
Flag for India

Past Weather in Dharapuram, Tamil Nadu, India — Yesterday and Last 2 Weeks

Currently: 79 °F. Partly sunny. (Weather station: Coimbatore / Peelamedu, India). See more current weather

Past Weather in Dharapuram — Graph

°F

Dharapuram Temperature Yesterday

Maximum temperature yesterday: 88 °F (at 11:00 am)
Minimum temperature yesterday: 75 °F (at 12:00 am)
Average temperature yesterday: 81 °F

High & Low Weather Summary for the Past Weeks

 TemperatureHumidityPressure
High91 °F (Jul 20, 12:30 pm)100% (Jul 13, 5:30 am)29.92 "Hg (Jul 13, 5:30 am)
Low70 °F (Jul 11, 2:30 am)43% (Jul 20, 1:00 pm)29.62 "Hg (Jul 11, 2:30 pm)
Average79 °F76%29.79 "Hg
* Reported Jul 10 5:30 pm — Jul 25 6:00 pm, Dharapuram. Weather by CustomWeather, © 2021

Note: Actual official high and low records may vary slightly from our data, if they occured in-between our weather recording intervals... More about our weather records

Dharapuram Weather History for the Previous 24 Hours

Scroll right to see more
 ConditionsComfort  
Time TempWeatherWind HumidityBarometerVisibility
6:00 pm
Sun, Jul 25
81 °FBroken clouds.14 mph70%29.80 "Hg4 mi
5:30 pm82 °FBroken clouds.12 mph70%29.77 "Hg4 mi
5:00 pm82 °FPartly sunny.12 mph70%29.77 "Hg4 mi
4:30 pm84 °FPartly sunny.12 mph66%29.77 "Hg4 mi
4:00 pm84 °FPartly sunny.14 mph66%29.77 "Hg4 mi
3:30 pm86 °FPartly sunny.12 mph66%29.77 "Hg4 mi
3:00 pm84 °FPartly sunny.13 mph66%29.77 "Hg4 mi
2:30 pm84 °FBroken clouds.17 mph66%29.80 "Hg4 mi
2:00 pm84 °FBroken clouds.16 mph66%29.80 "Hg4 mi
1:30 pm82 °FBroken clouds.12 mph74%29.80 "Hg4 mi
1:00 pm82 °FPartly sunny.9 mph74%29.83 "Hg4 mi
12:30 pm84 °FPartly sunny.14 mph66%29.83 "Hg4 mi
12:00 pm84 °FPartly sunny.15 mph66%29.83 "Hg4 mi
11:30 am84 °FScattered clouds.15 mph66%29.86 "Hg4 mi
11:00 am84 °FScattered clouds.8 mph70%29.86 "Hg4 mi
10:30 am84 °FScattered clouds.17 mph70%29.86 "Hg4 mi
10:00 am82 °FScattered clouds.14 mph74%29.86 "Hg4 mi
9:30 am82 °FScattered clouds.15 mph74%29.86 "Hg4 mi
9:00 am81 °FScattered clouds.10 mph74%29.86 "Hg4 mi
8:30 am79 °FScattered clouds.10 mph79%29.83 "Hg4 mi
8:00 am79 °FFog.13 mph79%29.83 "Hg3 mi
7:30 am77 °FFog.12 mph89%29.83 "Hg3 mi
7:00 am75 °FFog.8 mph89%29.83 "Hg2 mi
6:30 am73 °FFog.10 mph94%29.80 "Hg3 mi
5:30 am73 °FFog.6 mph94%29.80 "Hg3 mi
4:30 am75 °FFog.6 mph89%29.80 "Hg3 mi
2:30 am75 °FFog.7 mph89%29.80 "Hg3 mi
1:30 am75 °FFog.9 mph89%29.80 "Hg3 mi
12:30 am75 °FFog.9 mph94%29.83 "Hg3 mi
11:30 pm
Sat, Jul 24
75 °FFog.9 mph94%29.83 "Hg3 mi
10:30 pm75 °FFog.9 mph94%29.83 "Hg3 mi
10:00 pm75 °FFog.10 mph89%29.83 "Hg3 mi
9:30 pm75 °FFog.7 mph89%29.83 "Hg3 mi
9:00 pm75 °FFog.9 mph89%29.83 "Hg3 mi
8:30 pm77 °FFog.12 mph89%29.80 "Hg3 mi
8:00 pm79 °FFog.9 mph84%29.80 "Hg3 mi
7:30 pm79 °FFog.10 mph84%29.80 "Hg3 mi
7:00 pm79 °FFog.16 mph89%29.77 "Hg3 mi
Weather by CustomWeather, © 2021

See weather overview